TimeCST,TemperatureF,Dew PointF,Humidity,Sea Level PressureIn,VisibilityMPH,Wind Direction,Wind SpeedMPH,Gust SpeedMPH,PrecipitationIn,Events,Conditions,WindDirDegrees,DateUTC
12:54 AM,21.0,14.0,74,29.98,10.0,SSE,4.6,-,N/A,,Clear,160,2013-02-24 06:54:00
1:54 AM,19.9,12.9,74,29.99,10.0,Calm,Calm,-,N/A,,Partly Cloudy,0,2013-02-24 07:54:00
2:54 AM,19.0,14.0,81,29.99,8.0,Calm,Calm,-,N/A,,Clear,0,2013-02-24 08:54:00
3:54 AM,16.0,12.0,84,30.00,7.0,SSE,5.8,-,N/A,,Mostly Cloudy,160,2013-02-24 09:54:00
4:54 AM,17.1,12.9,84,30.01,7.0,SSE,5.8,-,N/A,,Scattered Clouds,150,2013-02-24 10:54:00
5:54 AM,18.0,12.9,81,30.03,6.0,SE,4.6,-,N/A,,Haze,130,2013-02-24 11:54:00
6:54 AM,16.0,12.0,84,30.05,6.0,SE,6.9,-,N/A,,Partly Cloudy,140,2013-02-24 12:54:00
7:54 AM,19.9,15.1,81,30.05,3.0,SE,4.6,-,N/A,,Haze,130,2013-02-24 13:54:00
8:54 AM,19.9,15.1,81,30.07,5.0,SSE,8.1,-,N/A,,Haze,160,2013-02-24 14:54:00
9:54 AM,25.0,18.0,75,30.08,7.0,South,5.8,-,N/A,,Clear,180,2013-02-24 15:54:00
10:54 AM,28.9,19.9,69,30.09,8.0,South,3.5,-,N/A,,Clear,180,2013-02-24 16:54:00
11:54 AM,33.1,21.0,61,30.09,8.0,SSW,3.5,-,N/A,,Clear,210,2013-02-24 17:54:00
12:54 PM,36.0,23.0,59,30.08,8.0,Calm,Calm,-,N/A,,Mostly Cloudy,0,2013-02-24 18:54:00
1:54 PM,37.9,24.1,57,30.06,9.0,South,4.6,-,N/A,,Mostly Cloudy,180,2013-02-24 19:54:00
2:54 PM,39.9,25.0,55,30.04,10.0,SSW,3.5,-,N/A,,Mostly Cloudy,200,2013-02-24 20:54:00
3:54 PM,41.0,25.0,53,30.04,10.0,South,3.5,-,N/A,,Overcast,170,2013-02-24 21:54:00
4:54 PM,41.0,25.0,53,30.04,10.0,East,6.9,-,N/A,,Overcast,100,2013-02-24 22:54:00
5:54 PM,39.0,27.0,62,30.06,9.0,ENE,8.1,-,N/A,,Overcast,70,2013-02-24 23:54:00
6:54 PM,37.0,27.0,67,30.08,8.0,East,5.8,-,N/A,,Overcast,80,2013-02-25 00:54:00
7:54 PM,36.0,26.1,67,30.09,8.0,East,4.6,-,N/A,,Mostly Cloudy,90,2013-02-25 01:54:00
8:54 PM,35.1,26.1,70,30.09,8.0,East,5.8,-,N/A,,Mostly Cloudy,90,2013-02-25 02:54:00
9:54 PM,35.1,26.1,70,30.09,8.0,East,8.1,-,N/A,,Mostly Cloudy,100,2013-02-25 03:54:00
10:54 PM,34.0,26.1,73,30.10,7.0,ENE,3.5,-,N/A,,Overcast,70,2013-02-25 04:54:00
11:54 PM,34.0,26.1,73,30.10,7.0,SE,3.5,-,N/A,,Overcast,130,2013-02-25 05:54:00